Accueil
METAR-TAF:

METAR-TAF

Aéroports :

Berlin, New Hampshire, États-Unis

latitude: 44-34-34N, longitude: 071-10-43W, altitude: 353 m

Observation

Le bulletin a été fait il y a 28 minutes, à 02:52 UTC
Vent calme
Température 13°C
Humidité 100%
Pression 1016 hPa
Visibilité: 0.4 km
brouillard

METAR: KBML 190252Z AUTO 00000KT 1/4SM FG VV001 13/13 A2999 RMK AO2 SLP154 T01330128 51013

Heure: 23:20 (03:20 UTC)


TAF: absent

Observations et prévisions météorologiques de plus de 4000 aéroports (messages METAR et TAF).

Les stations disponibles sont représentées par des disques jaunes et rouges sur la carte.

Passer la souris dessus pour voir le nom de la station.

Cliquer dessus pour voir les observations et prévisions météorologiques.

Pour changer de carte: cliquez sur les boutons verts avec une croix noire pour zoomer, sur le bouton vert avec un tiret pour effectuer un zoom arrière, ou sur les flèches vertes pour les cartes adjacentes.


METAR-TAF: